Home   Weather   Bielsko-Biała   Past weeks

Flag for Poland Past Weather in Bielsko-Biała, Poland — Yesterday and Last 2 Weeks

Now
43 °F

Sunny.


Feels Like: 40 °F
Forecast: 42 / 59 °F
Wind: 6 mph from East

Location: Katowice

Current Time: May 1, 2017 at 8:32:07 am

Latest Report: May 1, 2017 at 7:00 am


Visibility: 13 mi

Pressure: 30.11 "Hg

Humidity: 81%

Dew Point: 38 °F

Location of Bielsko-BiałaLocation

Past Weather in Bielsko-Biała — Graph

°F

Bielsko-Biała Temperature Yesterday

Maximum temperature yesterday: 53 °F (at 3:00 pm)
Minimum temperature yesterday: 39 °F (at 12:00 am)
Average temperature yesterday: 46 °F

High & Low Weather Summary for the Past Weeks

 TemperatureHumidityPressure
High61 °F (Apr 25, 2:00 pm)97% (Apr 17, 2:00 am)30.47 "Hg (Apr 17, 2:00 am)
Low26 °F (Apr 21, 4:00 am)38% (Apr 24, 4:00 pm)29.70 "Hg (Apr 25, 7:00 pm)
Average41 °F76%30.04 "Hg
* Reported Apr 16 7:00 am — May 1 7:00 am, Bielsko-Biała, Weather by CustomWeather, © 2017

Note: Actual official high and low records may vary slightly from our data, if they occured in-between our weather recording intervals... More about our weather records

Advertising

Bielsko-Biała Weather History for the Previous 24 Hours

Scroll right to see more
 ConditionsComfort  
Time TempWeatherWind HumidityBarometerVisibility
7:00 am
Mon, May 1
43 °FSunny.6 mph81%30.11 "Hg12 mi
6:00 am39 °FSunny.3 mph87%30.13 "Hg6 mi
5:00 am38 °FClear.3 mph90%30.12 "Hg6 mi
4:00 am38 °FClear.3 mph90%30.12 "Hg6 mi
3:00 am38 °FClear.2 mph89%30.12 "Hg6 mi
2:00 am40 °FClear.2 mph85%30.12 "Hg6 mi
1:00 am42 °FClear.3 mph80%30.12 "Hg9 mi
12:00 am43 °FPassing clouds.3 mph78%30.13 "Hg9 mi
11:00 pm
Sun, Apr 30
44 °FPassing clouds.3 mph74%30.14 "Hg9 mi
10:00 pm45 °FPassing clouds.3 mph71%30.13 "Hg9 mi
9:00 pm47 °FPassing clouds.3 mph63%30.13 "Hg12 mi
8:00 pm49 °FPassing clouds.3 mph58%30.12 "Hg19 mi
7:00 pm51 °FScattered clouds.5 mph54%30.12 "Hg19 mi
6:00 pm52 °FPartly sunny.3 mph49%30.12 "Hg19 mi
5:00 pm53 °FPartly sunny.5 mph47%30.13 "Hg19 mi
4:00 pm53 °FPartly sunny.2 mph41%30.13 "Hg19 mi
3:00 pm53 °FPartly sunny.5 mph42%30.15 "Hg12 mi
2:00 pm51 °FPartly sunny.6 mph55%30.16 "Hg12 mi
1:00 pm51 °FPartly sunny.5 mph61%30.17 "Hg12 mi
12:00 pm49 °FOvercast.1 mph54%30.18 "Hg12 mi
11:00 am47 °FOvercast.1 mph59%30.18 "Hg12 mi
10:00 am48 °FPartly sunny.1 mph66%30.17 "Hg9 mi
9:00 am47 °FPartly sunny.2 mph74%30.18 "Hg6 mi
8:00 am44 °FFog.1 mph81%30.18 "Hg5 mi
Weather by CustomWeather, © 2017

See weather overviewHow to use our weather pages